SHI4367 ORBI-OIMM

Flight info

Callsign SHI4367
Flight time N/A
Altitude 37000
Route NOLDO B411 RIBUX
Aircraft B733/M-SDE2E3FHIRW/S

Departure

Time 2026-04-29 09:35
Airport Baghdad International Airport / New Al Muthana Air Base (ORBI)

Arrival

Time N/A
Airport Mashhad International Airport (OIMM)
Time Latitude Longitude Altitude Speed Heading
2026-04-29 09:04 33.26788 44.22574 119 ft 0 kts 90°
2026-04-29 09:25 33.26788 44.22575 119 ft 0 kts 90°
2026-04-29 09:26 33.26794 44.22596 119 ft 4 kts 40°
2026-04-29 09:26 33.26832 44.22622 119 ft 7 kts 25°
2026-04-29 09:26 33.26893 44.22640 119 ft 10 kts 358°
2026-04-29 09:26 33.26973 44.22627 119 ft 13 kts 350°
2026-04-29 09:27 33.27064 44.22647 119 ft 14 kts 46°
2026-04-29 09:27 33.27116 44.22756 119 ft 16 kts 62°
2026-04-29 09:27 33.27173 44.22881 119 ft 17 kts 60°
2026-04-29 09:27 33.27237 44.23013 119 ft 19 kts 59°
2026-04-29 09:28 33.27309 44.23155 119 ft 20 kts 58°
2026-04-29 09:28 33.27383 44.23308 119 ft 22 kts 62°
2026-04-29 09:28 33.27450 44.23478 119 ft 22 kts 84°
2026-04-29 09:28 33.27401 44.23620 119 ft 0 kts 122°
2026-04-29 09:29 33.27400 44.23620 119 ft 0 kts 132°
2026-04-29 09:29 33.27354 44.23582 119 ft 8 kts 209°
2026-04-29 09:29 33.27292 44.23598 119 ft 11 kts 150°
2026-04-29 09:30 33.27213 44.23656 119 ft 15 kts 148°
2026-04-29 09:30 33.27110 44.23731 119 ft 19 kts 149°
2026-04-29 09:30 33.26982 44.23819 119 ft 23 kts 151°
2026-04-29 09:30 33.26828 44.23914 119 ft 26 kts 150°
2026-04-29 09:31 33.26658 44.24034 119 ft 28 kts 151°
2026-04-29 09:31 33.26479 44.24155 119 ft 29 kts 151°
2026-04-29 09:31 33.26298 44.24281 119 ft 30 kts 150°
2026-04-29 09:31 33.26112 44.24407 119 ft 30 kts 151°
2026-04-29 09:32 33.25931 44.24536 119 ft 30 kts 149°
2026-04-29 09:32 33.25743 44.24664 119 ft 30 kts 151°
2026-04-29 09:32 33.25554 44.24791 119 ft 30 kts 151°
2026-04-29 09:32 33.25382 44.24905 119 ft 27 kts 149°
2026-04-29 09:33 33.25236 44.25008 119 ft 10 kts 146°
2026-04-29 09:33 33.25198 44.25078 119 ft 10 kts 89°
2026-04-29 09:33 33.25228 44.25169 119 ft 13 kts 60°
2026-04-29 09:33 33.25277 44.25244 119 ft 9 kts 349°
2026-04-29 09:34 33.25294 44.25235 119 ft 2 kts 331°
2026-04-29 09:34 33.25340 44.25202 119 ft 15 kts 330°
2026-04-29 09:34 33.25639 44.24996 119 ft 87 kts 329°
2026-04-29 09:34 33.26367 44.24497 119 ft 151 kts 330°
2026-04-29 09:35 33.27377 44.23792 429 ft 175 kts 327°
2026-04-29 09:35 33.28446 44.23112 1192 ft 173 kts 339°
2026-04-29 09:35 33.29685 44.23009 1548 ft 188 kts 13°
2026-04-29 09:35 33.30776 44.23915 1895 ft 205 kts 57°
2026-04-29 09:36 33.31113 44.25657 2067 ft 234 kts 100°
2026-04-29 09:36 33.30512 44.27493 2644 ft 242 kts 123°
2026-04-29 09:36 33.29584 44.29153 3387 ft 243 kts 123°
2026-04-29 09:36 33.28695 44.30870 4096 ft 246 kts 121°
2026-04-29 09:37 33.27880 44.32708 4577 ft 261 kts 117°
2026-04-29 09:37 33.27032 44.34707 5143 ft 272 kts 117°
2026-04-29 09:37 33.26169 44.36723 5826 ft 277 kts 117°
2026-04-29 09:37 33.25280 44.38790 6560 ft 281 kts 117°
2026-04-29 09:38 33.24378 44.40879 7308 ft 284 kts 117°
2026-04-29 09:38 33.23467 44.42981 8032 ft 288 kts 117°
2026-04-29 09:38 33.22543 44.45113 8773 ft 291 kts 117°
2026-04-29 09:38 33.21605 44.47270 9486 ft 295 kts 117°
2026-04-29 09:39 33.20661 44.49440 10201 ft 298 kts 118°
2026-04-29 09:39 33.19658 44.51745 10331 ft 325 kts 118°
2026-04-29 09:39 33.18578 44.54223 10518 ft 348 kts 118°
2026-04-29 09:39 33.17441 44.56831 11107 ft 357 kts 118°
2026-04-29 09:40 33.16290 44.59470 11838 ft 361 kts 118°
2026-04-29 09:40 33.15116 44.62160 12602 ft 364 kts 118°
2026-04-29 09:40 33.13953 44.64821 13297 ft 368 kts 119°
2026-04-29 09:40 33.12742 44.67596 13981 ft 373 kts 120°
2026-04-29 09:41 33.11539 44.70354 14706 ft 376 kts 120°
2026-04-29 09:41 33.10347 44.73069 15598 ft 373 kts 120°
2026-04-29 09:41 33.09128 44.75846 16331 ft 376 kts 120°
2026-04-29 09:41 33.07909 44.78619 17023 ft 379 kts 121°
2026-04-29 09:42 33.06676 44.81426 17661 ft 383 kts 121°
2026-04-29 09:42 33.05432 44.84253 18274 ft 388 kts 121°
2026-04-29 09:42 33.04172 44.87119 18937 ft 391 kts 121°
2026-04-29 09:42 33.02900 44.90007 19576 ft 394 kts 121°
2026-04-29 09:43 33.01623 44.92905 20202 ft 398 kts 121°
2026-04-29 09:43 33.00333 44.95828 20811 ft 401 kts 122°
2026-04-29 09:43 32.99038 44.98761 21424 ft 404 kts 121°
2026-04-29 09:43 32.97716 45.01756 22015 ft 407 kts 122°
2026-04-29 09:44 32.96402 45.04727 22575 ft 411 kts 122°
2026-04-29 09:44 32.95054 45.07772 23165 ft 414 kts 122°
2026-04-29 09:44 32.93698 45.10834 23711 ft 417 kts 122°
2026-04-29 09:44 32.92341 45.13893 24214 ft 422 kts 122°
2026-04-29 09:45 32.90974 45.16976 24736 ft 425 kts 122°
2026-04-29 09:45 32.89577 45.20120 25226 ft 428 kts 122°
2026-04-29 09:45 32.88168 45.23265 25615 ft 433 kts 123°
2026-04-29 09:45 32.87694 45.24324 25796 ft 433 kts 123°
2026-04-29 09:46 32.85331 45.29659 26599 ft 439 kts 120°
2026-04-29 09:46 32.84416 45.33144 26915 ft 455 kts 101°
2026-04-29 09:47 32.94681 45.52662 29201 ft 490 kts 48°
2026-04-29 09:48 32.96920 45.55761 29607 ft 492 kts 48°
2026-04-29 09:48 32.99149 45.58854 29848 ft 497 kts 48°
2026-04-29 09:48 33.01413 45.62000 30206 ft 501 kts 48°
2026-04-29 09:48 33.03670 45.65138 30782 ft 498 kts 49°
2026-04-29 09:49 33.05939 45.68303 31007 ft 499 kts 49°
2026-04-29 09:49 33.08197 45.71459 31144 ft 506 kts 49°
2026-04-29 09:49 33.10500 45.74672 31387 ft 508 kts 49°
2026-04-29 09:49 33.12830 45.77905 31509 ft 513 kts 48°
2026-04-29 09:50 33.15178 45.81168 31694 ft 516 kts 48°
2026-04-29 09:50 33.17509 45.84419 32002 ft 517 kts 48°
2026-04-29 09:50 33.19842 45.87682 32403 ft 516 kts 48°
2026-04-29 09:50 33.21386 45.89842 32688 ft 514 kts 48°
2026-04-29 09:51 33.24483 45.94181 33305 ft 510 kts 48°
2026-04-29 09:51 33.26774 45.97393 33753 ft 507 kts 48°
2026-04-29 09:51 33.29055 46.00594 33980 ft 509 kts 48°
2026-04-29 09:51 33.31350 46.03817 34234 ft 511 kts 48°
2026-04-29 09:52 33.33669 46.07076 34462 ft 513 kts 48°
2026-04-29 09:52 33.35984 46.10350 34511 ft 514 kts 49°
2026-04-29 09:52 33.38297 46.13651 34727 ft 516 kts 49°
2026-04-29 09:52 33.40598 46.16931 34986 ft 515 kts 48°
2026-04-29 09:53 33.42890 46.20189 35303 ft 516 kts 47°
2026-04-29 09:53 33.45203 46.23477 35557 ft 516 kts 47°
2026-04-29 09:53 33.47519 46.26769 35817 ft 518 kts 48°
2026-04-29 09:53 33.49874 46.30122 35920 ft 520 kts 47°
2026-04-29 09:54 33.52190 46.33423 36260 ft 522 kts 47°
2026-04-29 09:54 33.54502 46.36722 36471 ft 521 kts 47°
2026-04-29 09:54 33.56884 46.40124 36685 ft 521 kts 47°
2026-04-29 09:54 33.59130 46.43502 36893 ft 522 kts 51°
2026-04-29 09:55 33.61282 46.47051 37041 ft 525 kts 53°
2026-04-29 09:55 33.63418 46.50639 37132 ft 527 kts 53°
2026-04-29 09:55 33.67705 46.57751 37088 ft 523 kts 52°
2026-04-29 09:56 33.71975 46.64794 37072 ft 523 kts 52°
2026-04-29 09:56 33.76279 46.71937 37057 ft 525 kts 53°
2026-04-29 09:57 33.80560 46.79044 37126 ft 524 kts 53°
2026-04-29 09:57 33.84827 46.86133 37081 ft 524 kts 52°
2026-04-29 09:58 33.89134 46.93301 37071 ft 526 kts 53°
2026-04-29 09:58 33.93415 47.00441 37084 ft 527 kts 53°
2026-04-29 09:59 33.97698 47.07609 37067 ft 525 kts 54°
2026-04-29 09:59 34.01222 47.15248 37123 ft 524 kts 64°
2026-04-29 10:00 34.04499 47.23091 37033 ft 517 kts 63°
2026-04-29 10:00 34.07832 47.30802 37028 ft 521 kts 63°
2026-04-29 10:01 34.08931 47.33342 37072 ft 522 kts 62°
2026-04-29 10:01 34.09507 47.34673 37066 ft 523 kts 63°